Location: Góry Miechowskie
(50.3599°N, 20.1803°E)
Time: 21:40:25
(UTC+00:00)

S-56A Canister/Altair - Pass Details

Date: 21 September 2024
Orbit: 636 x 2487 km, 38.9° (Epoch: 09 October)

Event Time Altitude Azimuth Distance (km) Brightness Sun altitude
Rises 20:15:29 0° 262° (W) 3,594 11.4 -31.6°
Reaches altitude 10° 20:18:32 10° 245° (WSW) 2,893 10.6 -31.9°
Enters shadow 20:21:04 17° 224° (SW) 2,596 10.1 -32.2°
Maximum altitude 20:23:24 20° 201° (SSW) 2,630 - -32.4°
Drops below altitude 10° 20:29:38 10° 160° (SSE) 3,818 - -33.1°
Sets 20:34:31 0° 146° (SE) 5,179 - -33.5°
